Вернуться в каталог

STARLINK-6347

АктивенСвязьVLEO
NORAD 57359·PAYLOAD·🇺🇸 United States

Запущен Jul 16, 2023 с Cape Canaveral Space Force Station

Loading…

Ближайшие Пролёты (ближайшие 24 часа)

TLE

СвежийSource: CelesTrak SupGP

Эпоха: Sep 15, 2026, 02:10 UTC

1 57359C 23099AH  26258.09076389 -.00021448  00000+0 -77696-3 0  2583
2 57359  42.9994 252.1638 0000889 253.9461 131.9173 15.27585040    13

Отслеживайте STARLINK-6347 в реальном времени с AllMySat

Download on the App Store